Location: Vancouver
(49.2500°N, 123.1330°W)
Time: 23:53:25
(UTC-07:00)

A-11 Canister half - Visible Passes

Search period start: 25 May 2016 00:00
Search period end: 04 June 2016 00:00
Orbit: 1527 x 1683 km, 47.3° (Epoch: 24 May)

Date Brightness Start Highest point End Pass type
(mag) Time Alt. Az. Time Alt. Az. Time Alt. Az.
25 May 8.9 00:46:43 10° W 00:56:10 80° S 01:05:57 10° E visible
25 May 9.0 02:51:33 10° W 03:01:03 69° SSW 03:10:50 10° ESE visible
25 May 9.1 22:21:08 10° SW 22:30:04 53° SSE 22:39:14 10° ENE visible
26 May 8.9 00:25:10 10° WSW 00:34:36 80° S 00:44:20 10° E visible
26 May 9.0 02:30:01 10° W 02:39:28 70° SSW 02:49:15 10° ESE visible
26 May 9.5 04:35:05 10° WNW 04:43:35 36° SW 04:52:17 10° SSE visible
26 May 9.1 21:59:39 10° SW 22:08:32 51° SSE 22:17:38 10° ENE visible
27 May 8.9 00:03:37 10° WSW 00:13:01 79° S 00:22:44 10° E visible
27 May 8.9 02:08:27 10° W 02:17:54 71° SSW 02:27:41 10° ESE visible
27 May 9.5 04:13:29 10° WNW 04:22:03 37° SW 04:30:50 10° SSE visible
27 May 9.2 21:38:11 10° SW 21:47:00 50° SSE 21:56:02 10° ENE visible
27 May 8.9 23:42:04 10° WSW 23:51:27 79° S 00:01:08 10° E visible
28 May 8.9 01:46:53 10° W 01:56:20 72° SSW 02:06:06 10° ESE visible
28 May 9.4 03:51:54 10° WNW 04:00:31 39° SW 04:09:24 10° SSE visible
28 May 8.9 23:20:31 10° WSW 23:29:53 78° S 23:39:32 10° E visible
29 May 8.9 01:25:20 10° W 01:34:46 73° SSW 01:44:30 10° ESE visible
29 May 9.4 03:30:19 10° WNW 03:39:00 40° SW 03:47:56 10° SSE visible
29 May 8.9 22:58:58 10° WSW 23:08:19 77° S 23:17:56 10° E visible
30 May 8.9 01:03:47 10° W 01:13:12 74° SSW 01:22:55 10° ESE visible
30 May 9.3 03:08:44 10° WNW 03:17:28 42° SW 03:26:28 10° SSE visible
30 May 8.9 22:37:26 10° WSW 22:46:45 76° SSE 22:56:19 10° E visible
31 May 8.9 00:42:13 10° W 00:51:37 75° SSW 01:01:20 10° ESE visible
31 May 9.3 02:47:09 10° WNW 02:55:56 43° SW 03:05:00 10° SSE visible
31 May 9.0 22:15:53 10° WSW 22:25:11 75° SSE 22:34:44 10° E visible
01 Jun 8.9 00:20:40 10° W 00:30:03 76° SSW 00:39:45 10° ESE visible
01 Jun 9.2 02:25:35 10° WNW 02:34:25 45° SW 02:43:30 10° SSE visible
01 Jun 9.0 21:54:20 10° WSW 22:03:37 74° SSE 22:13:08 10° E visible
01 Jun 8.9 23:59:06 10° W 00:08:29 77° S 00:18:09 10° ESE visible
02 Jun 9.2 02:04:00 10° WNW 02:12:53 46° SSW 02:22:01 10° SE visible
02 Jun 10.2 04:10:47 10° W 04:16:04 16° SW 04:21:25 10° SSW visible
02 Jun 8.9 23:37:33 10° W 23:46:55 77° S 23:56:34 10° ESE visible
03 Jun 9.2 01:42:26 10° WNW 01:51:21 48° SSW 02:00:31 10° SE visible
03 Jun 10.1 03:48:59 10° W 03:54:35 17° SW 04:00:16 10° SSW visible
03 Jun 8.9 23:16:00 10° W 23:25:21 78° S 23:34:58 10° ESE visible
